Вернуться в каталог

STARLINK-4411

АктивенСвязьSSO
NORAD 53202·PAYLOAD·🇺🇸 United States

Запущен Jul 22, 2022 с Vandenberg Space Force Base

Loading…

Ближайшие Пролёты (ближайшие 24 часа)

TLE

СвежийSource: CelesTrak SupGP

Эпоха: Sep 15, 2026, 02:02 UTC

1 53202C 22084P   26258.08520833  .00536490  00000+0  17953-1 0  2580
2 53202  97.2842 313.8104 0001656  82.4179 263.4513 15.30759012    13

Отслеживайте STARLINK-4411 в реальном времени с AllMySat

Download on the App Store